Location: Hradec Kralove
(50.2170°N, 15.8330°E)
Time: 20:50:23
(UTC+01:00)

Vanguard 3 - Pass Details

Date: 08 December 2023
Orbit: 508 x 3239 km, 33.4° (Epoch: 26 February)

Event Time Altitude Azimuth Distance (km) Brightness Sun altitude
Rises 20:30:30 0° 226° (SW) 6,771 12.1 -42.9°
Reaches altitude 10° 20:36:28 10° 217° (SW) 5,378 11.4 -43.8°
Enters shadow 20:43:29 22° 194° (SSW) 3,869 10.4 -44.8°
